Gage, OK

11:18 AM CST on February 19, 2017 (GMT -0600)
Gage

Weather History for KGAG - September, 2012

Change the Weather History Date:

Friday, September 7, 2012

  Actual Average Record
Temperature  
Mean Temperature 80 °F -  
Max Temperature 93 °F 89 °F 104 °F (1971)
Min Temperature 64 °F 62 °F 46 °F (2004)
Cooling Degree Days 14    
Growing Degree Days 30 (Base 50)    
Moisture  
Dew Point 60 °F    
Average Humidity 63    
Maximum Humidity 96    
Minimum Humidity 36    
Precipitation  
Precipitation 0.00 in - - ()
Sea Level Pressure  
Sea Level Pressure 29.91 in    
Wind  
Wind Speed 10 mph (NNE)    
Max Wind Speed 32 mph    
Max Gust Speed 45 mph    
Visibility 10 miles    
Events Rain    
Averages and records for this station are not official NWS values.
T = Trace of Precipitation, MM = Missing Value Source: NWS Daily Summary

Daily Weather History Graph

Daily Weather History Graph

Search for Another Location

Airport or City:

Trip Planner

Search our weather history database for the weather conditions in past years. The results will help you decide how hot, cold, wet, or windy it might be!

Date:

Astronomy

Sep. 07, 2012 Rise Set
Actual Time 7:15 AM CDT 7:57 PM CDT
Civil Twilight 6:49 AM CDT 8:23 PM CDT
Nautical Twilight 6:18 AM CDT 8:54 PM CDT
Astronomical Twilight 5:47 AM CDT 9:25 PM CDT
Moon No Moon Rise 1:56 PM CDT (9/7)
Length of Visible Light 13h 33m
Length of Day
12h 41m
Waning Gibbous, 58% of the Moon is Illuminated
Sep 7
Waning Gibbous
Sep 8
Last Quarter
Sep 15
New
Sep 22
First Quarter
Sep 29
Full

Hourly Weather History & Observations

Time (CDT) Temp. Heat Index Dew Point Humidity Pressure Visibility Wind Dir Wind Speed Gust Speed Precip Events Conditions
12:53 AM 78.1 °F - 66.0 °F 66% 29.79 in 10.0 mi South 11.5 mph 19.6 mph N/A   Clear
1:53 AM 75.0 °F - 66.9 °F 76% 29.80 in 10.0 mi SSE 6.9 mph - N/A   Clear
2:53 AM 73.0 °F - 66.9 °F 81% 29.81 in 10.0 mi East 3.5 mph - N/A   Clear
3:53 AM 72.0 °F - 66.9 °F 84% 29.81 in 10.0 mi ENE 3.5 mph - N/A   Clear
4:53 AM 71.1 °F - 66.9 °F 87% 29.80 in 10.0 mi Calm Calm - N/A   Clear
5:53 AM 70.0 °F - 66.9 °F 90% 29.78 in 10.0 mi Calm Calm - N/A   Clear
6:53 AM 68.0 °F - 66.9 °F 96% 29.79 in 10.0 mi NNE 3.5 mph - N/A   Clear
7:53 AM 71.1 °F - 68.0 °F 90% 29.80 in 10.0 mi SSE 5.8 mph - N/A   Clear
8:53 AM 77.0 °F - 69.1 °F 76% 29.80 in 10.0 mi SSW 3.5 mph - N/A   Clear
9:53 AM 84.9 °F 87.6 °F 66.9 °F 55% 29.79 in 10.0 mi SSW 8.1 mph - N/A   Clear
10:53 AM 87.1 °F 89.9 °F 66.9 °F 51% 29.79 in 10.0 mi SW 10.4 mph - N/A   Clear
11:53 AM 93.0 °F 93.8 °F 62.1 °F 36% 29.79 in 10.0 mi West 13.8 mph 17.3 mph N/A   Clear
12:31 PM 89.6 °F 92.2 °F 66.2 °F 46% 29.90 in 10.0 mi NE 19.6 mph - N/A   Clear
12:53 PM 90.0 °F 92.8 °F 66.9 °F 46% 29.81 in 10.0 mi NNE 20.7 mph 27.6 mph N/A   Clear
2:53 PM 75.0 °F - 48.9 °F 40% 29.95 in 10.0 mi North 32.2 mph 44.9 mph N/A   Partly Cloudy
3:53 PM 71.1 °F - 50.0 °F 47% 29.99 in 10.0 mi NNE 27.6 mph 38.0 mph N/A   Overcast
4:53 PM 73.0 °F - 51.1 °F 46% 30.00 in 10.0 mi North 24.2 mph 35.7 mph N/A   Mostly Cloudy
5:53 PM 72.0 °F - 53.1 °F 51% 30.03 in 10.0 mi North 21.9 mph 31.1 mph N/A   Partly Cloudy
6:53 PM 66.9 °F - 54.0 °F 63% 30.05 in 10.0 mi North 20.7 mph 28.8 mph 0.00 in Rain Light Rain
7:53 PM 66.0 °F - 53.1 °F 63% 30.07 in 10.0 mi North 12.7 mph 20.7 mph 0.00 in   Clear
8:53 PM 66.0 °F - 50.0 °F 56% 30.08 in 10.0 mi North 16.1 mph - N/A   Clear
9:53 PM 66.0 °F - 50.0 °F 56% 30.11 in 10.0 mi North 11.5 mph - N/A   Partly Cloudy
10:53 PM 66.0 °F - 51.1 °F 59% 30.13 in 10.0 mi North 9.2 mph - N/A   Clear
11:53 PM 64.9 °F - 51.1 °F 61% 30.13 in 10.0 mi NNE 6.9 mph - N/A   Clear